TimeCST,TemperatureF,Dew PointF,Humidity,Sea Level PressureIn,VisibilityMPH,Wind Direction,Wind SpeedMPH,Gust SpeedMPH,PrecipitationIn,Events,Conditions,WindDirDegrees,DateUTC
12:15 AM,26.8,18.9,72,30.01,10.0,Calm,Calm,-,N/A,,Scattered Clouds,0,2012-12-07 06:15:00
12:36 AM,26.1,18.5,73,30.01,10.0,NNW,4.6,-,N/A,,Clear,330,2012-12-07 06:36:00
12:56 AM,25.5,18.1,74,30.01,10.0,Calm,Calm,-,N/A,,Clear,0,2012-12-07 06:56:00
1:15 AM,24.6,18.1,76,30.01,10.0,Calm,Calm,-,N/A,,Scattered Clouds,0,2012-12-07 07:15:00
1:36 AM,25.5,18.5,75,30.01,10.0,Calm,Calm,-,N/A,,Mostly Cloudy,0,2012-12-07 07:36:00
1:55 AM,24.6,18.1,76,30.01,10.0,Calm,Calm,-,N/A,,Mostly Cloudy,0,2012-12-07 07:55:00
2:16 AM,26.2,18.9,74,30.01,10.0,Calm,Calm,-,N/A,,Scattered Clouds,0,2012-12-07 08:16:00
2:35 AM,25.9,18.5,74,30.02,10.0,Calm,Calm,-,N/A,,Mostly Cloudy,0,2012-12-07 08:35:00
2:55 AM,25.2,18.5,76,30.02,10.0,Calm,Calm,-,N/A,,Mostly Cloudy,0,2012-12-07 08:55:00
3:16 AM,23.9,18.1,79,30.02,10.0,Calm,Calm,-,N/A,,Scattered Clouds,0,2012-12-07 09:16:00
3:36 AM,24.4,18.3,78,30.01,10.0,Calm,Calm,-,N/A,,Mostly Cloudy,0,2012-12-07 09:36:00
3:56 AM,25.2,18.7,76,30.01,10.0,Calm,Calm,-,N/A,,Overcast,0,2012-12-07 09:56:00
4:16 AM,25.5,19.2,77,30.01,10.0,Calm,Calm,-,N/A,,Overcast,0,2012-12-07 10:16:00
4:36 AM,26.1,19.4,76,30.00,10.0,Calm,Calm,-,N/A,,Overcast,0,2012-12-07 10:36:00
4:55 AM,25.7,19.2,76,29.99,10.0,Calm,Calm,-,N/A,,Overcast,0,2012-12-07 10:55:00
5:16 AM,25.5,19.4,78,30.00,10.0,Calm,Calm,-,N/A,,Scattered Clouds,0,2012-12-07 11:16:00
5:36 AM,25.5,19.0,76,30.00,10.0,Calm,Calm,-,N/A,,Mostly Cloudy,0,2012-12-07 11:36:00
5:55 AM,25.9,19.6,77,29.99,10.0,Calm,Calm,-,N/A,,Overcast,0,2012-12-07 11:55:00
6:16 AM,26.4,20.1,77,29.99,10.0,Calm,Calm,-,N/A,,Overcast,0,2012-12-07 12:16:00
6:36 AM,27.0,20.3,76,29.99,10.0,South,3.5,-,N/A,,Overcast,180,2012-12-07 12:36:00
6:55 AM,27.3,20.3,75,30.00,10.0,Calm,Calm,-,N/A,,Overcast,0,2012-12-07 12:55:00
7:16 AM,27.3,20.3,75,30.01,10.0,Calm,Calm,-,N/A,,Overcast,0,2012-12-07 13:16:00
7:36 AM,27.3,20.5,75,30.01,10.0,Calm,Calm,-,N/A,,Overcast,0,2012-12-07 13:36:00
7:56 AM,27.5,20.7,75,30.01,10.0,Calm,Calm,-,N/A,,Overcast,0,2012-12-07 13:56:00
8:15 AM,27.5,21.2,77,30.02,10.0,Calm,Calm,-,N/A,,Overcast,0,2012-12-07 14:15:00
8:35 AM,28.4,21.2,74,30.01,10.0,Calm,Calm,-,N/A,,Overcast,0,2012-12-07 14:35:00
8:56 AM,28.4,21.6,76,30.01,10.0,North,5.8,-,N/A,,Overcast,360,2012-12-07 14:56:00
9:15 AM,28.8,21.6,74,30.02,10.0,North,6.9,-,N/A,,Overcast,360,2012-12-07 15:15:00
9:35 AM,28.8,21.2,73,30.02,10.0,North,6.9,-,N/A,,Overcast,350,2012-12-07 15:35:00
9:56 AM,29.1,21.4,73,30.02,10.0,North,5.8,-,N/A,,Overcast,10,2012-12-07 15:56:00
10:15 AM,29.3,21.4,72,30.02,10.0,North,6.9,-,N/A,,Overcast,10,2012-12-07 16:15:00
10:36 AM,29.8,21.7,72,30.02,10.0,Calm,Calm,-,N/A,,Overcast,0,2012-12-07 16:36:00
10:55 AM,29.8,21.4,71,30.02,10.0,Calm,Calm,-,N/A,,Overcast,0,2012-12-07 16:55:00
11:16 AM,29.8,21.6,71,30.01,10.0,Calm,Calm,-,N/A,,Overcast,0,2012-12-07 17:16:00
11:36 AM,29.5,21.6,72,30.01,10.0,Calm,Calm,-,N/A,,Overcast,0,2012-12-07 17:36:00
11:56 AM,28.6,23.0,80,30.01,10.0,Calm,Calm,-,N/A,,Overcast,0,2012-12-07 17:56:00
12:16 PM,28.2,23.9,84,30.00,10.0,NNE,9.2,-,N/A,,Overcast,30,2012-12-07 18:16:00
12:35 PM,28.0,24.8,88,29.99,7.0,NNE,11.5,-,N/A,Snow,Light Snow,20,2012-12-07 18:35:00
12:56 PM,27.7,25.3,91,30.00,5.0,SE,3.5,-,N/A,Snow,Light Snow,130,2012-12-07 18:56:00
1:15 PM,28.0,25.7,91,29.99,1.0,Calm,Calm,-,N/A,Snow,Light Snow,0,2012-12-07 19:15:00
1:36 PM,27.9,26.1,93,29.98,0.5,Calm,Calm,-,0.01,Snow,Snow,0,2012-12-07 19:36:00
1:56 PM,27.9,26.2,94,29.97,0.5,Calm,Calm,-,0.02,Snow,Light Snow,0,2012-12-07 19:56:00
2:15 PM,27.7,26.2,94,29.97,1.2,Calm,Calm,-,N/A,Snow,Light Snow,0,2012-12-07 20:15:00
2:36 PM,28.0,26.6,94,29.97,1.5,Calm,Calm,-,0.01,Snow,Light Snow,0,2012-12-07 20:36:00
2:56 PM,28.0,26.6,94,29.97,1.2,Calm,Calm,-,0.01,Snow,Light Snow,0,2012-12-07 20:56:00
3:15 PM,28.4,27.1,95,29.97,1.2,Calm,Calm,-,N/A,Snow,Light Snow,0,2012-12-07 21:15:00
3:36 PM,28.4,27.0,94,29.97,0.8,ENE,6.9,-,0.01,Snow,Light Snow,60,2012-12-07 21:36:00
3:55 PM,28.4,27.1,95,29.97,1.2,ENE,8.1,-,0.01,Snow,Light Snow,70,2012-12-07 21:55:00
4:15 PM,28.0,26.6,94,29.98,1.2,East,10.4,-,N/A,Snow,Light Snow,80,2012-12-07 22:15:00
4:36 PM,27.5,26.4,96,29.98,1.2,ENE,6.9,-,N/A,Snow,Light Snow,70,2012-12-07 22:36:00
4:56 PM,27.5,26.4,96,29.99,1.5,East,9.2,-,N/A,Snow,Light Snow,80,2012-12-07 22:56:00
5:16 PM,27.3,26.1,95,29.99,2.0,ENE,5.8,-,N/A,Snow,Light Snow,70,2012-12-07 23:16:00
5:35 PM,27.3,26.1,95,29.99,1.5,Calm,Calm,-,N/A,Snow,Light Snow,0,2012-12-07 23:35:00
5:56 PM,27.1,26.1,96,29.99,1.5,Calm,Calm,-,N/A,Snow,Light Snow,0,2012-12-07 23:56:00
6:16 PM,27.1,26.1,96,30.00,1.2,Calm,Calm,-,0.01,Snow,Light Snow,0,2012-12-08 00:16:00
6:36 PM,27.1,26.1,96,30.00,1.5,Calm,Calm,-,0.01,Snow,Light Snow,0,2012-12-08 00:36:00
7:16 PM,27.0,25.9,96,30.01,1.2,Calm,Calm,-,N/A,Snow,Light Snow,0,2012-12-08 01:16:00
7:35 PM,27.0,25.7,95,30.01,1.5,Calm,Calm,-,N/A,Snow,Light Snow,0,2012-12-08 01:35:00
7:56 PM,26.6,25.7,96,30.01,2.0,Calm,Calm,-,N/A,Snow,Light Snow,0,2012-12-08 01:56:00
8:16 PM,26.6,25.7,96,30.01,1.8,Calm,Calm,-,N/A,Snow,Light Snow,0,2012-12-08 02:16:00
8:36 PM,26.6,25.7,96,30.01,1.5,Calm,Calm,-,N/A,Snow,Light Snow,0,2012-12-08 02:36:00
8:55 PM,26.6,25.5,96,30.01,2.0,Calm,Calm,-,N/A,Snow,Light Snow,0,2012-12-08 02:55:00
9:15 PM,26.4,25.5,96,30.01,2.0,Calm,Calm,-,N/A,Snow,Light Snow,0,2012-12-08 03:15:00
9:36 PM,25.7,24.6,96,30.01,2.0,Calm,Calm,-,N/A,Snow,Light Snow,0,2012-12-08 03:36:00
9:55 PM,25.5,24.4,96,30.01,2.0,Calm,Calm,-,N/A,Snow,Light Snow,0,2012-12-08 03:55:00
10:15 PM,25.2,23.9,95,30.01,2.0,Calm,Calm,-,N/A,Snow,Light Snow,0,2012-12-08 04:15:00
10:36 PM,24.4,23.4,96,30.01,0.5,Calm,Calm,-,N/A,Snow,Light Snow,0,2012-12-08 04:36:00
10:56 PM,22.3,21.2,96,30.01,0.2,Calm,Calm,-,N/A,Snow,Light Snow,0,2012-12-08 04:56:00
11:15 PM,21.6,20.1,94,30.01,0.2,Calm,Calm,-,N/A,Snow,Light Snow,0,2012-12-08 05:15:00
11:35 PM,22.6,21.2,94,30.02,0.2,Calm,Calm,-,0.01,Snow,Light Snow,0,2012-12-08 05:35:00
11:55 PM,21.9,20.3,93,30.02,0.5,Calm,Calm,-,0.01,Snow,Light Snow,0,2012-12-08 05:55:00